HK36E SVMC-SKCG

Flight info

Callsign HK36E
Flight time 1h 7m
Altitude 28000
Route GAVIS1 GAVIS MAKBU BAQ BAQ4B
Aircraft BE20/M-SDFGRWY/LB1

Departure

Time 2026-04-28 14:47
Airport La Chinita International Airport (SVMC)

Arrival

Time 2026-04-28 15:54
Airport Rafael Nuñez International Airport (SKCG)
Time Latitude Longitude Altitude Speed Heading
2026-04-28 14:36 10.55313 -71.72589 218 ft 0 kts 25°
2026-04-28 14:40 10.55315 -71.72588 218 ft 2 kts 25°
2026-04-28 14:40 10.55342 -71.72591 218 ft 3 kts 296°
2026-04-28 14:41 10.55345 -71.72599 218 ft 0 kts 292°
2026-04-28 14:41 10.55348 -71.72606 218 ft 4 kts 292°
2026-04-28 14:41 10.55359 -71.72637 218 ft 10 kts 274°
2026-04-28 14:41 10.55361 -71.72696 218 ft 11 kts 284°
2026-04-28 14:42 10.55397 -71.72785 217 ft 10 kts 293°
2026-04-28 14:42 10.55419 -71.72837 218 ft 10 kts 294°
2026-04-28 14:42 10.55384 -71.72874 217 ft 12 kts 203°
2026-04-28 14:42 10.55284 -71.72918 216 ft 16 kts 203°
2026-04-28 14:43 10.55196 -71.72954 216 ft 17 kts 202°
2026-04-28 14:43 10.55082 -71.73002 213 ft 13 kts 202°
2026-04-28 14:43 10.54992 -71.73040 211 ft 9 kts 202°
2026-04-28 14:43 10.54924 -71.73070 211 ft 14 kts 203°
2026-04-28 14:44 10.54835 -71.73107 210 ft 11 kts 201°
2026-04-28 14:44 10.54740 -71.73149 208 ft 16 kts 208°
2026-04-28 14:44 10.54674 -71.73206 209 ft 13 kts 225°
2026-04-28 14:44 10.54624 -71.73259 217 ft 2 kts 227°
2026-04-28 14:45 10.54624 -71.73260 217 ft 0 kts 227°
2026-04-28 14:45 10.54617 -71.73268 217 ft 5 kts 227°
2026-04-28 14:45 10.54571 -71.73321 217 ft 12 kts 243°
2026-04-28 14:45 10.54605 -71.73389 222 ft 10 kts 334°
2026-04-28 14:46 10.54710 -71.73362 218 ft 27 kts 24°
2026-04-28 14:46 10.55104 -71.73195 214 ft 93 kts 22°
2026-04-28 14:46 10.55811 -71.72897 430 ft 120 kts 24°
2026-04-28 14:46 10.56622 -71.72518 778 ft 141 kts 26°
2026-04-28 14:47 10.57550 -71.72090 1127 ft 165 kts 22°
2026-04-28 14:47 10.58637 -71.71666 1735 ft 164 kts 22°
2026-04-28 14:47 10.59670 -71.71236 2438 ft 159 kts 24°
2026-04-28 14:47 10.60697 -71.70796 3031 ft 160 kts 25°
2026-04-28 14:48 10.61734 -71.70351 3509 ft 163 kts 25°
2026-04-28 14:48 10.62786 -71.69899 4013 ft 164 kts 26°
2026-04-28 14:48 10.63652 -71.69198 4483 ft 161 kts 66°
2026-04-28 14:48 10.63829 -71.68103 4974 ft 157 kts 105°
2026-04-28 14:49 10.63285 -71.67182 5459 ft 157 kts 143°
2026-04-28 14:49 10.62264 -71.66833 5943 ft 160 kts 182°
2026-04-28 14:49 10.61230 -71.67264 6417 ft 165 kts 216°
2026-04-28 14:49 10.60332 -71.68026 6852 ft 169 kts 218°
2026-04-28 14:50 10.59430 -71.68805 7328 ft 171 kts 217°
2026-04-28 14:50 10.58532 -71.69576 7796 ft 172 kts 218°
2026-04-28 14:50 10.57883 -71.70595 8240 ft 178 kts 259°
2026-04-28 14:50 10.57862 -71.71866 8674 ft 182 kts 272°
2026-04-28 14:51 10.58252 -71.73088 9115 ft 184 kts 296°
2026-04-28 14:51 10.58663 -71.74328 9580 ft 186 kts 282°
2026-04-28 14:51 10.58904 -71.75606 10036 ft 187 kts 279°
2026-04-28 14:51 10.59129 -71.76917 10498 ft 188 kts 279°
2026-04-28 14:52 10.59365 -71.78234 10965 ft 190 kts 279°
2026-04-28 14:52 10.59605 -71.79551 11470 ft 189 kts 279°
2026-04-28 14:52 10.59844 -71.80868 11949 ft 190 kts 279°
2026-04-28 14:52 10.60084 -71.82186 12460 ft 189 kts 279°
2026-04-28 14:53 10.60323 -71.83504 12904 ft 191 kts 279°
2026-04-28 14:53 10.60564 -71.84830 13461 ft 190 kts 279°
2026-04-28 14:53 10.60803 -71.86150 13966 ft 191 kts 279°
2026-04-28 14:53 10.61041 -71.87459 14457 ft 189 kts 279°
2026-04-28 14:54 10.61280 -71.88778 14935 ft 190 kts 279°
2026-04-28 14:54 10.61520 -71.90105 15435 ft 189 kts 279°
2026-04-28 14:54 10.61759 -71.91421 15908 ft 191 kts 279°
2026-04-28 14:54 10.62001 -71.92759 16361 ft 192 kts 279°
2026-04-28 14:55 10.62242 -71.94088 16852 ft 191 kts 279°
2026-04-28 14:55 10.62484 -71.95425 17307 ft 192 kts 279°
2026-04-28 14:55 10.62723 -71.96743 17812 ft 192 kts 279°
2026-04-28 14:55 10.62965 -71.98084 18263 ft 193 kts 279°
2026-04-28 14:56 10.63207 -71.99419 18783 ft 190 kts 279°
2026-04-28 14:56 10.63447 -72.00743 19262 ft 188 kts 279°
2026-04-28 14:56 10.63683 -72.02051 19767 ft 188 kts 278°
2026-04-28 14:56 10.63920 -72.03362 20269 ft 188 kts 278°
2026-04-28 14:57 10.64153 -72.04649 20792 ft 187 kts 278°
2026-04-28 14:57 10.64312 -72.05529 21125 ft 187 kts 278°
2026-04-28 14:57 10.64622 -72.07243 21812 ft 186 kts 278°
2026-04-28 14:57 10.64856 -72.08541 22290 ft 186 kts 277°
2026-04-28 14:58 10.65089 -72.09830 22789 ft 185 kts 277°
2026-04-28 14:58 10.65322 -72.11123 23243 ft 186 kts 277°
2026-04-28 14:58 10.65552 -72.12394 23664 ft 185 kts 277°
2026-04-28 14:58 10.65785 -72.13684 24030 ft 186 kts 277°
2026-04-28 14:59 10.66017 -72.14973 24437 ft 184 kts 277°
2026-04-28 14:59 10.66248 -72.16251 24799 ft 184 kts 277°
2026-04-28 14:59 10.66479 -72.17536 25162 ft 184 kts 277°
2026-04-28 14:59 10.66709 -72.18810 25553 ft 183 kts 276°
2026-04-28 15:00 10.66936 -72.20068 25895 ft 184 kts 276°
2026-04-28 15:00 10.67153 -72.21345 26255 ft 181 kts 270°
2026-04-28 15:00 10.67230 -72.22618 26594 ft 181 kts 270°
2026-04-28 15:00 10.67318 -72.23893 26917 ft 181 kts 270°
2026-04-28 15:01 10.67407 -72.25170 27255 ft 180 kts 270°
2026-04-28 15:01 10.67492 -72.26438 27550 ft 180 kts 269°
2026-04-28 15:01 10.67577 -72.27711 27848 ft 181 kts 269°
2026-04-28 15:01 10.67663 -72.29011 27991 ft 192 kts 269°
2026-04-28 15:02 10.67755 -72.30425 28011 ft 209 kts 269°
2026-04-28 15:02 10.67857 -72.31952 28016 ft 224 kts 270°
2026-04-28 15:02 10.67968 -72.33579 28015 ft 237 kts 270°
2026-04-28 15:02 10.68083 -72.35287 28012 ft 247 kts 270°
2026-04-28 15:03 10.68203 -72.37062 28006 ft 255 kts 270°
2026-04-28 15:03 10.68323 -72.38861 28001 ft 261 kts 270°
2026-04-28 15:03 10.68448 -72.40725 28001 ft 266 kts 270°
2026-04-28 15:03 10.68575 -72.42618 27995 ft 270 kts 270°
2026-04-28 15:04 10.68702 -72.44527 27997 ft 272 kts 270°
2026-04-28 15:04 10.68831 -72.46460 27993 ft 274 kts 270°
2026-04-28 15:04 10.68960 -72.48397 27994 ft 275 kts 270°
2026-04-28 15:04 10.69089 -72.50344 27993 ft 276 kts 270°
2026-04-28 15:05 10.69219 -72.52294 27991 ft 277 kts 270°
2026-04-28 15:05 10.69349 -72.54250 28010 ft 277 kts 270°
2026-04-28 15:05 10.69477 -72.56181 28010 ft 277 kts 270°
2026-04-28 15:05 10.69607 -72.58136 28006 ft 277 kts 270°
2026-04-28 15:06 10.69736 -72.60092 28007 ft 277 kts 270°
2026-04-28 15:06 10.69866 -72.62053 28010 ft 277 kts 270°
2026-04-28 15:06 10.69995 -72.64009 28011 ft 277 kts 270°
2026-04-28 15:06 10.70124 -72.65966 28010 ft 277 kts 270°
2026-04-28 15:07 10.70251 -72.67901 28011 ft 277 kts 270°
2026-04-28 15:07 10.70380 -72.69860 28003 ft 277 kts 270°
2026-04-28 15:07 10.70509 -72.71810 28011 ft 276 kts 270°
2026-04-28 15:07 10.70637 -72.73759 28006 ft 276 kts 270°
2026-04-28 15:08 10.70765 -72.75712 28011 ft 276 kts 270°
2026-04-28 15:08 10.70893 -72.77657 28011 ft 276 kts 270°
2026-04-28 15:08 10.71019 -72.79583 28008 ft 276 kts 270°
2026-04-28 15:08 10.71146 -72.81534 28001 ft 276 kts 270°
2026-04-28 15:09 10.71274 -72.83489 28004 ft 277 kts 270°
2026-04-28 15:09 10.71402 -72.85444 28006 ft 277 kts 270°
2026-04-28 15:09 10.71530 -72.87397 28005 ft 277 kts 270°
2026-04-28 15:09 10.71615 -72.88692 28006 ft 277 kts 270°
2026-04-28 15:10 10.71785 -72.91306 28004 ft 277 kts 270°
2026-04-28 15:10 10.71910 -72.93237 28004 ft 277 kts 270°
2026-04-28 15:10 10.72038 -72.95193 28000 ft 277 kts 270°
2026-04-28 15:10 10.72166 -72.97153 27995 ft 277 kts 270°
2026-04-28 15:11 10.72292 -72.99113 27993 ft 277 kts 270°
2026-04-28 15:11 10.72419 -73.01076 27994 ft 277 kts 270°
2026-04-28 15:11 10.72545 -73.03012 27994 ft 277 kts 270°
2026-04-28 15:11 10.72672 -73.04972 27997 ft 277 kts 270°
2026-04-28 15:12 10.72799 -73.06931 27995 ft 277 kts 270°
2026-04-28 15:12 10.72925 -73.08889 27995 ft 277 kts 270°
2026-04-28 15:12 10.73051 -73.10846 28006 ft 277 kts 270°
2026-04-28 15:12 10.73178 -73.12805 28006 ft 277 kts 270°
2026-04-28 15:13 10.73304 -73.14765 28007 ft 277 kts 270°
2026-04-28 15:13 10.73428 -73.16697 28006 ft 277 kts 270°
2026-04-28 15:13 10.73554 -73.18652 28007 ft 277 kts 270°
2026-04-28 15:13 10.73680 -73.20611 28005 ft 277 kts 270°
2026-04-28 15:14 10.73805 -73.22568 28006 ft 278 kts 270°
2026-04-28 15:14 10.73931 -73.24529 28031 ft 277 kts 270°
2026-04-28 15:14 10.74057 -73.26495 28033 ft 278 kts 270°
2026-04-28 15:14 10.74182 -73.28457 28032 ft 278 kts 270°
2026-04-28 15:15 10.74306 -73.30394 28033 ft 278 kts 270°
2026-04-28 15:15 10.74390 -73.31715 28033 ft 278 kts 270°
2026-04-28 15:15 10.74557 -73.34319 28034 ft 278 kts 270°
2026-04-28 15:15 10.74683 -73.36289 28031 ft 278 kts 270°
2026-04-28 15:16 10.74807 -73.38250 28073 ft 278 kts 270°
2026-04-28 15:16 10.74932 -73.40214 28074 ft 277 kts 270°
2026-04-28 15:16 10.75056 -73.42173 28072 ft 277 kts 270°
2026-04-28 15:16 10.75181 -73.44126 28071 ft 277 kts 270°
2026-04-28 15:17 10.75303 -73.46055 28072 ft 277 kts 270°
2026-04-28 15:17 10.75426 -73.48010 28072 ft 278 kts 270°
2026-04-28 15:17 10.75551 -73.49975 28071 ft 278 kts 270°
2026-04-28 15:17 10.75675 -73.51938 28097 ft 278 kts 270°
2026-04-28 15:18 10.75798 -73.53898 28097 ft 276 kts 270°
2026-04-28 15:18 10.75921 -73.55848 28096 ft 276 kts 270°
2026-04-28 15:18 10.76044 -73.57776 28093 ft 277 kts 270°
2026-04-28 15:18 10.76167 -73.59734 28092 ft 276 kts 270°
2026-04-28 15:19 10.76288 -73.61682 28096 ft 276 kts 270°
2026-04-28 15:19 10.76412 -73.63641 28095 ft 277 kts 270°
2026-04-28 15:19 10.76534 -73.65593 28091 ft 277 kts 270°
2026-04-28 15:19 10.76658 -73.67555 28089 ft 277 kts 270°
2026-04-28 15:20 10.76779 -73.69485 28089 ft 277 kts 270°
2026-04-28 15:20 10.76901 -73.71446 28089 ft 277 kts 270°
2026-04-28 15:20 10.77024 -73.73408 28088 ft 277 kts 270°
2026-04-28 15:20 10.77100 -73.75366 28089 ft 275 kts 267°
2026-04-28 15:21 10.77141 -73.77321 28093 ft 276 kts 268°
2026-04-28 15:21 10.77199 -73.79271 28061 ft 276 kts 268°
2026-04-28 15:21 10.77251 -73.81247 27810 ft 284 kts 268°
2026-04-28 15:21 10.77292 -73.83279 27504 ft 289 kts 268°
2026-04-28 15:22 10.77338 -73.85318 27201 ft 294 kts 268°
2026-04-28 15:22 10.77389 -73.87416 26897 ft 298 kts 268°
2026-04-28 15:22 10.77439 -73.89529 26593 ft 300 kts 268°
2026-04-28 15:22 10.77488 -73.91659 26285 ft 301 kts 268°
2026-04-28 15:23 10.77539 -73.93790 25940 ft 300 kts 268°
2026-04-28 15:23 10.77586 -73.95916 25640 ft 300 kts 268°
2026-04-28 15:23 10.77635 -73.98043 25343 ft 300 kts 269°
2026-04-28 15:23 10.77683 -74.00142 25056 ft 301 kts 269°
2026-04-28 15:24 10.77732 -74.02278 24767 ft 301 kts 269°
2026-04-28 15:24 10.77780 -74.04408 24481 ft 301 kts 269°
2026-04-28 15:24 10.77829 -74.06539 24197 ft 302 kts 269°
2026-04-28 15:24 10.77877 -74.08673 23868 ft 302 kts 269°
2026-04-28 15:25 10.77925 -74.10816 23588 ft 302 kts 269°
2026-04-28 15:25 10.77973 -74.12953 23264 ft 302 kts 269°
2026-04-28 15:25 10.78022 -74.15093 22931 ft 303 kts 269°
2026-04-28 15:25 10.78069 -74.17234 22602 ft 303 kts 270°
2026-04-28 15:26 10.78117 -74.19383 22271 ft 303 kts 270°
2026-04-28 15:26 10.78164 -74.21503 21960 ft 304 kts 270°
2026-04-28 15:26 10.78212 -74.23655 21617 ft 304 kts 270°
2026-04-28 15:26 10.78259 -74.25812 21301 ft 304 kts 270°
2026-04-28 15:27 10.78307 -74.27961 20990 ft 304 kts 270°
2026-04-28 15:27 10.78354 -74.30116 20679 ft 305 kts 270°
2026-04-28 15:27 10.78401 -74.32271 20375 ft 305 kts 270°
2026-04-28 15:27 10.78432 -74.33703 20173 ft 305 kts 270°
2026-04-28 15:28 10.78479 -74.35859 19861 ft 305 kts 270°
2026-04-28 15:28 10.78541 -74.38718 19470 ft 304 kts 270°
2026-04-28 15:28 10.78572 -74.40171 19271 ft 304 kts 270°
2026-04-28 15:28 10.78619 -74.42320 18980 ft 304 kts 270°
2026-04-28 15:29 10.78664 -74.44444 18694 ft 304 kts 270°
2026-04-28 15:29 10.78711 -74.46598 18321 ft 304 kts 270°
2026-04-28 15:29 10.78756 -74.48750 17908 ft 304 kts 270°
2026-04-28 15:29 10.78802 -74.50903 17481 ft 304 kts 270°
2026-04-28 15:30 10.78848 -74.53051 17056 ft 303 kts 270°
2026-04-28 15:30 10.78893 -74.55200 16640 ft 303 kts 271°
2026-04-28 15:30 10.78938 -74.57342 16230 ft 302 kts 271°
2026-04-28 15:30 10.78983 -74.59481 15825 ft 302 kts 271°
2026-04-28 15:31 10.79028 -74.61610 15428 ft 301 kts 271°
2026-04-28 15:31 10.79071 -74.63710 15041 ft 301 kts 271°
2026-04-28 15:31 10.79116 -74.65840 14652 ft 301 kts 271°
2026-04-28 15:31 10.79160 -74.67966 14268 ft 300 kts 271°
2026-04-28 15:32 10.79203 -74.70084 13868 ft 297 kts 271°
2026-04-28 15:32 10.79246 -74.72170 13353 ft 292 kts 271°
2026-04-28 15:32 10.79288 -74.74212 12823 ft 287 kts 271°
2026-04-28 15:32 10.79329 -74.76232 12308 ft 285 kts 271°
2026-04-28 15:33 10.79371 -74.78245 11797 ft 284 kts 271°
2026-04-28 15:33 10.79411 -74.80204 11316 ft 283 kts 271°
2026-04-28 15:33 10.79452 -74.82252 10805 ft 281 kts 271°
2026-04-28 15:33 10.79401 -74.84181 10322 ft 270 kts 261°
2026-04-28 15:34 10.78900 -74.85984 9832 ft 261 kts 246°
2026-04-28 15:34 10.78001 -74.87552 9303 ft 253 kts 232°
2026-04-28 15:34 10.76822 -74.88851 8776 ft 246 kts 225°
2026-04-28 15:34 10.75632 -74.90089 8261 ft 242 kts 225°
2026-04-28 15:35 10.74468 -74.91311 7754 ft 239 kts 225°
2026-04-28 15:35 10.72160 -74.93688 6762 ft 231 kts 218°
2026-04-28 15:35 10.70716 -74.94313 6276 ft 227 kts 185°
2026-04-28 15:36 10.69173 -74.94243 5777 ft 223 kts 172°
2026-04-28 15:36 10.67635 -74.94024 5278 ft 223 kts 171°
2026-04-28 15:36 10.66102 -74.93800 4775 ft 221 kts 171°
2026-04-28 15:36 10.64593 -74.93656 4267 ft 217 kts 185°
2026-04-28 15:37 10.63218 -74.94247 3761 ft 218 kts 220°
2026-04-28 15:37 10.62340 -74.95484 3269 ft 213 kts 239°
2026-04-28 15:37 10.61450 -74.96669 2992 ft 206 kts 226°
2026-04-28 15:37 10.60540 -74.97701 2978 ft 186 kts 229°
2026-04-28 15:38 10.59755 -74.98681 2971 ft 177 kts 230°
2026-04-28 15:38 10.58977 -74.99683 2986 ft 185 kts 230°
2026-04-28 15:38 10.58164 -75.00725 2992 ft 190 kts 230°
2026-04-28 15:38 10.57336 -75.01783 2995 ft 191 kts 230°
2026-04-28 15:39 10.56510 -75.02841 2994 ft 191 kts 230°
2026-04-28 15:39 10.55691 -75.03887 2997 ft 191 kts 230°
2026-04-28 15:39 10.54863 -75.04946 2995 ft 192 kts 230°
2026-04-28 15:39 10.54026 -75.06015 2994 ft 195 kts 230°
2026-04-28 15:40 10.53171 -75.07110 2998 ft 195 kts 230°
2026-04-28 15:40 10.52335 -75.08178 2995 ft 195 kts 230°
2026-04-28 15:40 10.51496 -75.09249 2996 ft 193 kts 230°
2026-04-28 15:40 10.50659 -75.10318 2994 ft 192 kts 230°
2026-04-28 15:41 10.49827 -75.11379 3001 ft 193 kts 230°
2026-04-28 15:41 10.48986 -75.12457 2999 ft 194 kts 230°
2026-04-28 15:41 10.48155 -75.13517 3001 ft 194 kts 230°
2026-04-28 15:41 10.47315 -75.14589 3001 ft 194 kts 230°
2026-04-28 15:42 10.46468 -75.15672 2986 ft 195 kts 230°
2026-04-28 15:42 10.45625 -75.16749 2990 ft 193 kts 230°
2026-04-28 15:42 10.44785 -75.17819 2987 ft 193 kts 230°
2026-04-28 15:42 10.43953 -75.18884 2988 ft 193 kts 230°
2026-04-28 15:43 10.43118 -75.19952 2992 ft 192 kts 230°
2026-04-28 15:43 10.42281 -75.21018 2991 ft 194 kts 230°
2026-04-28 15:43 10.41445 -75.22085 2987 ft 191 kts 230°
2026-04-28 15:43 10.40617 -75.23150 2982 ft 192 kts 231°
2026-04-28 15:44 10.39795 -75.24192 2982 ft 191 kts 230°
2026-04-28 15:44 10.38974 -75.25236 2984 ft 190 kts 231°
2026-04-28 15:44 10.38139 -75.26309 2994 ft 195 kts 230°
2026-04-28 15:44 10.37290 -75.27384 2990 ft 195 kts 230°
2026-04-28 15:45 10.36444 -75.28459 2992 ft 196 kts 230°
2026-04-28 15:45 10.35598 -75.29546 2996 ft 196 kts 230°
2026-04-28 15:45 10.34749 -75.30630 2991 ft 193 kts 230°
2026-04-28 15:45 10.33911 -75.31697 2993 ft 192 kts 230°
2026-04-28 15:46 10.33081 -75.32756 3000 ft 191 kts 230°
2026-04-28 15:46 10.32246 -75.33816 3003 ft 194 kts 230°
2026-04-28 15:46 10.31404 -75.34894 2993 ft 193 kts 230°
2026-04-28 15:46 10.30579 -75.35943 2999 ft 192 kts 230°
2026-04-28 15:47 10.29749 -75.37003 2993 ft 190 kts 230°
2026-04-28 15:47 10.28922 -75.38058 2997 ft 192 kts 230°
2026-04-28 15:47 10.28087 -75.39123 2995 ft 193 kts 230°
2026-04-28 15:47 10.27250 -75.40188 2993 ft 194 kts 230°
2026-04-28 15:48 10.26436 -75.41270 2998 ft 193 kts 238°
2026-04-28 15:48 10.26006 -75.42554 2996 ft 194 kts 262°
2026-04-28 15:48 10.26013 -75.43922 3000 ft 194 kts 272°
2026-04-28 15:48 10.26068 -75.45297 3001 ft 196 kts 271°
2026-04-28 15:49 10.26123 -75.46689 3006 ft 199 kts 271°
2026-04-28 15:49 10.26177 -75.48093 3002 ft 198 kts 271°
2026-04-28 15:49 10.26371 -75.49443 3005 ft 196 kts 289°
2026-04-28 15:49 10.27053 -75.50641 3007 ft 197 kts 312°
2026-04-28 15:50 10.28143 -75.51501 2893 ft 204 kts 334°
2026-04-28 15:50 10.29526 -75.51868 2707 ft 208 kts 358°
2026-04-28 15:50 10.30944 -75.51825 2524 ft 198 kts
2026-04-28 15:50 10.32277 -75.51767 2318 ft 187 kts
2026-04-28 15:51 10.33547 -75.51714 2063 ft 180 kts
2026-04-28 15:51 10.34745 -75.51666 1772 ft 164 kts
2026-04-28 15:51 10.35836 -75.51626 1501 ft 149 kts
2026-04-28 15:51 10.36831 -75.51605 1296 ft 135 kts
2026-04-28 15:52 10.37740 -75.51598 1066 ft 123 kts
2026-04-28 15:52 10.38534 -75.51576 909 ft 115 kts
2026-04-28 15:52 10.39363 -75.51554 952 ft 119 kts
2026-04-28 15:52 10.40188 -75.51486 780 ft 118 kts
2026-04-28 15:53 10.40987 -75.51403 504 ft 109 kts
2026-04-28 15:53 10.41715 -75.51369 289 ft 100 kts 356°
2026-04-28 15:53 10.42398 -75.51374 137 ft 103 kts 358°
2026-04-28 15:53 10.43150 -75.51328 61 ft 109 kts
2026-04-28 15:54 10.43824 -75.51307 5 ft 82 kts
2026-04-28 15:54 10.44301 -75.51288 6 ft 57 kts
2026-04-28 15:54 10.44495 -75.51280 7 ft 20 kts
2026-04-28 15:54 10.44530 -75.51293 7 ft 5 kts 318°
2026-04-28 15:55 10.44547 -75.51354 7 ft 11 kts 253°
2026-04-28 15:55 10.44498 -75.51397 7 ft 8 kts 254°
2026-04-28 15:55 10.44475 -75.51404 7 ft 0 kts 181°